Regional Weather Roundup
Issued by NWS

Home | Current Version | Previous Version | Graphics & Text | Print | Product List | Glossary On
Versions: 1 2 3 4 5 6 7 8 9 10 11 12 13 14 15 16 17 18 19 20 21 22 23 24 25 26 27 28 29 30 31 32 33 34 35 36 37 38 39 40 41 42 43 44 45 46 47 48 49 50
000
ASUS43 KFSD 031102
RWRSD

WEATHER ROUNDUP FOR SOUTH DAKOTA
NATIONAL WEATHER SERVICE SIOUX FALLS SD
600 AM CDT WED JUN 03 2015

NOTE: "FAIR" INDICATES FEW OR NO CLOUDS BELOW 12,000 FEET WITH NO
SIGNIFICANT WEATHER AND/OR OBSTRUCTIONS TO VISIBILITY.


SDZ001>005-009-010-012>017-031200-
NORTHWEST AND NORTH CENTRAL SOUTH DAKOTA

CITY           SKY/WX    TMP DP  RH WIND       PRES   REMARKS
BUFFALO          N/A     53  49  86 N14       29.90R
FAITH            N/A     54  50  86 NW21      29.90R
MOBRIDGE       CLOUDY    60  57  89 NW18G28   29.81R
$$

SDZ012>016-024>037-041>051-057-063-072>074-031200-
SOUTHWEST AND SOUTH CENTRAL SOUTH DAKOTA

CITY           SKY/WX    TMP DP  RH WIND       PRES   REMARKS
RAPID CTY ARPT CLEAR     55  51  86 N15       29.93R
PIERRE         CLOUDY    60  54  80 N9        29.83R
CUSTER         CLEAR     47  32  56 CALM      30.02S
ELLSWORTH AFB  CLEAR     55  52  88 N12       29.93S
PHILIP         CLEAR     56  54  93 W8        29.89R
PINE RIDGE     PTCLDY    51  49  92 W6        29.95R
WINNER         FAIR      62  54  74 CALM      29.81R
$$

SDZ004>011-016>023-039-040-031200-
NORTHEAST SOUTH DAKOTA

CITY           SKY/WX    TMP DP  RH WIND       PRES   REMARKS
ABERDEEN       CLOUDY    64  59  83 NW6       29.77S
WATERTOWN      CLOUDY    64  61  90 W3        29.77F
BROOKINGS      CLOUDY    64  61  88 S6        29.79F
SISSETON         N/A     67  64  90 NW10      29.73S
$$

SDZ017-020-022-023-036>040-048>070-031200-
SOUTHEAST SOUTH DAKOTA

CITY           SKY/WX    TMP DP  RH WIND       PRES   REMARKS
SIOUX FALLS    CLOUDY    64  60  87 SE7       29.79F
HURON          LGT RAIN  65  62  90 N9        29.82R
CHAMBERLAIN    CLOUDY    64  59  82 NE9       29.77F
MITCHELL       LGT RAIN  65  61  87 N16       29.76F
YANKTON        CLOUDY    63  61  94 SW8       29.80R
$$

ABBREVIATIONS USED IN REMARKS
   TC - TEMPERATURE IN CELSIUS
  WCI - WIND CHILL INDEX
   HX - HEAT INDEX
  VSB - VISIBILITY




USA.gov is the U.S. government's official web portal to all federal, state and local government web resources and services.